Hourly Data Report for June 23, 2021

TORONTO CITY
ONTARIO
Current Station Operator: ECCC - MSC

43°40'00.000" N
79°24'00.000" W
112.50 m
6158355
71508
XTO

Download Data

Hourly Data (June 2021)
Hourly Data Report for June 23, 2021
TIME
LST
Temp Definition
°C
Dew Point Definition
°C
Rel Hum Definition
%
Precip. Amount Definition
mm

Wind Dir Definition
10's deg

Wind Spd Definition
km/h
Visibility Definition
km
Stn Press Definition
kPa
Hmdx Definition


Wind Chill Definition


Weather Definition


00:00 12.4 4.4 58 0.0       100.28     LegendNANA
01:00 12.1 4.6 60 0.0       100.32     LegendNANA
02:00 11.5 5.2 65 0.0       100.36     LegendNANA
03:00 10.9 5.5 69 0.0       100.39     LegendNANA
04:00 10.9 5.7 70 0.0       100.44     LegendNANA
05:00 11.8 6.5 70 0.0       100.52     LegendNANA
06:00 12.8 7.2 69 0.0       100.60     LegendNANA
07:00 13.1 8.2 72 0.0       100.65     LegendNANA
08:00 16.2 9.2 63 0.0       100.72     LegendNANA
09:00 17.9 7.5 51 0.0       100.75     LegendNANA
10:00 19.3 9.9 54 0.0       100.79     LegendNANA
11:00 19.2 9.2 52 0.0       100.81     LegendNANA
12:00 19.5 8.2 48 0.0       100.80     LegendNANA
13:00 21.3 7.5 41 0.0       100.77     LegendNANA
14:00 21.7 6.2 36 0.0       100.73     LegendNANA
15:00 22.8 6.8 36 0.0       100.72     LegendNANA
16:00 22.2 10.5 48 0.0       100.70     LegendNANA
17:00 22.2 9.1 43 0.0       100.69     LegendNANA
18:00 21.2 7.8 42 0.0       100.72     LegendNANA
19:00 20.7 8.0 44 0.0       100.71     LegendNANA
20:00 19.7 9.8 53 0.0       100.72     LegendNANA
21:00 18.9 9.6 55 0.0       100.80     LegendNANA
22:00 17.8 10.4 62 0.0       100.83     LegendNANA
23:00 17.8 11.3 66 0.0       100.83     LegendNANA

Notes on Data Quality.

Legend

  • E = Estimated
  • M = Missing
  • NA = Not Available*
  • [empty] = Indicates an unobserved value
Date modified: